Terug naar catalogus

STARLINK-4589

ActiefCommunicatieVLEO
NORAD 53746·PAYLOAD·🇺🇸 United States

Gelanceerd Sep 5, 2022 vanaf Cape Canaveral Space Force Station

Loading…

Volgende Passages (komende 24 uur)

TLE

VersSource: CelesTrak SupGP

Epoch: Sep 14, 2026, 20:54 UTC

1 53746C 22107AY  26257.87131944 -.00043946  00000+0 -12986-2 0  2578
2 53746  53.1592 120.3862 0001291  83.7481 173.3585 15.34406037    14

Volg STARLINK-4589 in realtime met AllMySat

Download on the App Store